Back to catalog

FENGYUN 1C DEB

AliveSSO
NORAD 32153·DEBRIS·🇨🇳 China

Launched May 10, 1999 from Taiyuan Satellite Launch Center

Loading…

Next Passes (next 24 hours)

TLE

FreshSource: Space-Track

Epoch: Sep 14, 2026, 10:31 UTC

1 32153U 99025CSX 26257.43850680  .00000545  00000-0  12011-3 0  9997
2 32153  98.7415 115.9673 0207518 109.0829 253.2962 14.49240809 12120

Track FENGYUN 1C DEB in real time with AllMySat

Download on the App Store